When you browse on this site, cookies collect data to enhance your experience and personalize the content and advertising you see.
Visit our Privacy Policy to learn more. By continuing to use the site, you agree to this use of cookies and data.
  • In Hungary
  • List of Countries
  • For 7 days
  • Water Temperature
  • Weather Map
  • News
  • Weather Widgets
  • user-avatar
    Login

    Hourly Weather Griva

    Today, 15 September, Sunday

    Time Temperature Precipitation Wind Pressure Humidity
    00:00 +6°C° 0 mm 4 mps 740 mmHg 90%
    01:00 +6°C° 0 mm 4 mps 740 mmHg 91%
    02:00 +6°C° 0 mm 4 mps 740 mmHg 92%
    03:00 +7°C° 0 mm 3 mps 740 mmHg 93%
    04:00 +7°C° 0 mm 3 mps 740 mmHg 92%
    05:00 +6°C° 0 mm 4 mps 740 mmHg 90%
    06:00 +6°C° 0 mm 4 mps 741 mmHg 89%
    07:00 +6°C° 0 mm 4 mps 740 mmHg 87%
    08:00 +7°C° 0 mm 4 mps 740 mmHg 85%
    09:00 +7°C° 0 mm 4 mps 740 mmHg 83%
    10:00 +7°C° 0 mm 4 mps 740 mmHg 81%
    11:00 +7°C° 0 mm 4 mps 740 mmHg 79%
    12:00 +7°C° 0 mm 4 mps 740 mmHg 77%
    13:00 +7°C° 0 mm 4 mps 740 mmHg 76%
    14:00 +7°C° 0 mm 4 mps 740 mmHg 74%
    15:00 +7°C° 0 mm 4 mps 739 mmHg 73%
    16:00 +7°C° 0 mm 4 mps 739 mmHg 75%
    17:00 +6°C° 0 mm 4 mps 739 mmHg 76%
    18:00 +7°C° 0 mm 3 mps 739 mmHg 77%
    19:00 +7°C° 0 mm 3 mps 739 mmHg 80%
    20:00 +5°C° 0 mm 3 mps 739 mmHg 83%
    21:00 +5°C° 0 mm 3 mps 738 mmHg 85%
    22:00 +4°C° 0 mm 3 mps 738 mmHg 86%
    23:00 +4°C° 0 mm 3 mps 738 mmHg 87%

    Tomorrow, 16 September, Monday

    Time Temperature Precipitation Wind Pressure Humidity
    00:00 +4°C° 0 mm 3 mps 737 mmHg 88%
    01:00 +3°C° 0 mm 3 mps 737 mmHg 89%
    02:00 +3°C° 0 mm 3 mps 737 mmHg 89%
    03:00 +2°C° 0 mm 3 mps 737 mmHg 90%
    04:00 +2°C° 0 mm 3 mps 736 mmHg 91%
    05:00 +2°C° 0 mm 3 mps 736 mmHg 93%
    06:00 +2°C° 0 mm 3 mps 736 mmHg 94%
    07:00 +4°C° 0 mm 3 mps 735 mmHg 86%
    08:00 +6°C° 0 mm 4 mps 735 mmHg 77%
    09:00 +8°C° 0 mm 4 mps 734 mmHg 69%
    10:00 +8°C° 0.1 mm 5 mps 733 mmHg 68%
    11:00 +9°C° 0.1 mm 5 mps 733 mmHg 68%
    12:00 +9°C° 0.1 mm 5 mps 732 mmHg 68%
    13:00 +8°C° 0.1 mm 5 mps 732 mmHg 75%
    14:00 +7°C° 0.1 mm 4 mps 731 mmHg 82%
    15:00 +6°C° 0.1 mm 4 mps 731 mmHg 88%
    16:00 +6°C° 0.1 mm 4 mps 731 mmHg 90%
    17:00 +6°C° 0.1 mm 4 mps 730 mmHg 91%
    18:00 +7°C° 0.1 mm 3 mps 730 mmHg 92%
    19:00 +7°C° 0 mm 3 mps 729 mmHg 93%
    20:00 +7°C° 0 mm 3 mps 729 mmHg 94%
    21:00 +7°C° 0 mm 2 mps 729 mmHg 95%
    22:00 +7°C° 0 mm 2 mps 728 mmHg 96%
    23:00 +7°C° 0 mm 2 mps 728 mmHg 97%

    Day after tomorrow, 17 September, Tuesday

    Time Temperature Precipitation Wind Pressure Humidity
    00:00 +6°C° 0 mm 2 mps 728 mmHg 98%
    01:00 +7°C° 0 mm 2 mps 728 mmHg 98%
    02:00 +7°C° 0 mm 2 mps 728 mmHg 98%
    03:00 +7°C° 0 mm 2 mps 728 mmHg 97%
    04:00 +7°C° 0 mm 2 mps 728 mmHg 97%
    05:00 +7°C° 0 mm 2 mps 728 mmHg 96%
    06:00 +7°C° 0 mm 3 mps 728 mmHg 96%
    07:00 +7°C° 0 mm 3 mps 728 mmHg 95%
    08:00 +7°C° 0 mm 3 mps 728 mmHg 94%
    09:00 +7°C° 0 mm 3 mps 728 mmHg 93%
    10:00 +7°C° 0.1 mm 3 mps 728 mmHg 92%
    11:00 +8°C° 0.1 mm 3 mps 729 mmHg 92%
    12:00 +8°C° 0.1 mm 3 mps 729 mmHg 91%
    13:00 +8°C° 0.2 mm 3 mps 729 mmHg 90%
    14:00 +9°C° 0.2 mm 3 mps 729 mmHg 90%
    15:00 +9°C° 0.2 mm 3 mps 729 mmHg 89%
    16:00 +9°C° 1 mm 3 mps 729 mmHg 91%
    17:00 +8°C° 1 mm 2 mps 729 mmHg 93%
    18:00 +8°C° 1 mm 2 mps 728 mmHg 95%
    19:00 +7°C° 0.4 mm 2 mps 728 mmHg 95%
    20:00 +7°C° 0.4 mm 2 mps 728 mmHg 96%
    21:00 +7°C° 0.4 mm 2 mps 728 mmHg 96%
    22:00 +7°C° 0.2 mm 2 mps 728 mmHg 96%
    23:00 +7°C° 0.2 mm 2 mps 728 mmHg 97%

    18 September, Wednesday

    Time Temperature Precipitation Wind Pressure Humidity
    00:00 +7°C° 0.2 mm 2 mps 728 mmHg 97%
    01:00 +7°C° 0.1 mm 2 mps 729 mmHg 97%
    02:00 +7°C° 0.1 mm 2 mps 729 mmHg 97%
    03:00 +7°C° 0.1 mm 2 mps 729 mmHg 96%
    04:00 +7°C° 0 mm 2 mps 729 mmHg 96%
    05:00 +7°C° 0 mm 2 mps 730 mmHg 96%
    06:00 +7°C° 0 mm 2 mps 730 mmHg 95%
    07:00 +7°C° 0 mm 2 mps 730 mmHg 93%
    08:00 +7°C° 0 mm 2 mps 730 mmHg 91%
    09:00 +8°C° 0 mm 2 mps 731 mmHg 89%
    10:00 +8°C° 0.2 mm 2 mps 731 mmHg 88%
    11:00 +8°C° 0.2 mm 2 mps 731 mmHg 87%
    12:00 +9°C° 0.2 mm 2 mps 731 mmHg 86%
    13:00 +8°C° 0.2 mm 2 mps 731 mmHg 88%
    14:00 +8°C° 0.2 mm 2 mps 731 mmHg 90%
    15:00 +9°C° 0.2 mm 1 mps 731 mmHg 92%
    16:00 +8°C° 0 mm 1 mps 731 mmHg 93%
    17:00 +8°C° 0 mm 1 mps 731 mmHg 94%
    18:00 +8°C° 0 mm 1 mps 731 mmHg 96%
    19:00 +7°C° 0.1 mm 1 mps 731 mmHg 96%
    20:00 +7°C° 0.1 mm 1 mps 731 mmHg 96%
    21:00 +7°C° 0.1 mm 1 mps 731 mmHg 96%
    22:00 +7°C° 0.1 mm 1 mps 731 mmHg 96%
    23:00 +7°C° 0.1 mm 1 mps 731 mmHg 96%

    19 September, Thursday

    Time Temperature Precipitation Wind Pressure Humidity
    00:00 +6°C° 0.1 mm 1 mps 731 mmHg 96%
    01:00 +5°C° 0 mm 1 mps 732 mmHg 97%
    02:00 +5°C° 0 mm 1 mps 732 mmHg 97%
    03:00 +3°C° 0 mm 2 mps 732 mmHg 98%
    04:00 +3°C° 0 mm 2 mps 732 mmHg 97%
    05:00 +3°C° 0 mm 2 mps 732 mmHg 97%
    06:00 +4°C° 0 mm 2 mps 732 mmHg 96%
    07:00 +4°C° 0 mm 2 mps 733 mmHg 94%
    08:00 +3°C° 0 mm 3 mps 733 mmHg 92%
    09:00 +4°C° 0 mm 3 mps 734 mmHg 90%
    10:00 +5°C° 0 mm 3 mps 735 mmHg 82%
    11:00 +7°C° 0 mm 3 mps 735 mmHg 74%
    12:00 +8°C° 0 mm 3 mps 736 mmHg 66%
    13:00 +8°C° 0 mm 3 mps 736 mmHg 63%
    14:00 +8°C° 0 mm 3 mps 737 mmHg 60%
    15:00 +8°C° 0 mm 3 mps 737 mmHg 57%
    16:00 +7°C° 0 mm 3 mps 738 mmHg 64%
    17:00 +5°C° 0 mm 2 mps 738 mmHg 72%
    18:00 +4°C° 0 mm 2 mps 738 mmHg 79%
    19:00 +3°C° 0 mm 2 mps 739 mmHg 82%
    20:00 +2°C° 0 mm 2 mps 739 mmHg 86%
    21:00 +1°C° 0 mm 2 mps 740 mmHg 89%
    22:00 +1°C° 0 mm 2 mps 740 mmHg 91%
    23:00 -1°C° 0 mm 2 mps 740 mmHg 92%

    20 September, Friday

    Time Temperature Precipitation Wind Pressure Humidity
    00:00 -1°C° 0 mm 2 mps 741 mmHg 93%
    01:00 -1°C° 0 mm 2 mps 741 mmHg 95%
    02:00 -2°C° 0 mm 2 mps 741 mmHg 96%
    03:00 -2°C° 0 mm 2 mps 741 mmHg 97%
    04:00 -2°C° 0 mm 2 mps 741 mmHg 97%
    05:00 -2°C° 0 mm 2 mps 741 mmHg 97%
    06:00 -2°C° 0 mm 2 mps 741 mmHg 97%
    07:00 +1°C° 0 mm 2 mps 741 mmHg 86%
    08:00 +3°C° 0 mm 2 mps 741 mmHg 76%
    09:00 +4°C° 0 mm 3 mps 742 mmHg 66%
    10:00 +5°C° 0 mm 3 mps 742 mmHg 63%
    11:00 +5°C° 0 mm 3 mps 742 mmHg 59%
    12:00 +6°C° 0 mm 4 mps 742 mmHg 55%
    13:00 +6°C° 0 mm 4 mps 742 mmHg 54%
    14:00 +6°C° 0 mm 4 mps 741 mmHg 53%
    15:00 +6°C° 0 mm 4 mps 741 mmHg 52%
    16:00 +4°C° 0 mm 3 mps 741 mmHg 61%
    17:00 +4°C° 0 mm 2 mps 741 mmHg 69%
    18:00 +3°C° 0 mm 1 mps 741 mmHg 78%
    19:00 +2°C° 0 mm 1 mps 742 mmHg 80%
    20:00 +2°C° 0 mm 1 mps 742 mmHg 83%
    21:00 -1°C° 0 mm 2 mps 742 mmHg 86%
    22:00 +1°C° 0 mm 1 mps 742 mmHg 88%
    23:00 +1°C° 0 mm 1 mps 741 mmHg 90%
    Show more